Regional Weather Roundup
Issued by NWS

Home | Current Version | Previous Version | Graphics & Text | Print | Product List | Glossary On
Versions: 1 2 3 4 5 6 7 8 9 10 11 12 13 14 15 16 17 18 19 20 21 22 23 24 25 26 27 28 29 30 31 32 33 34 35 36 37 38 39 40 41 42 43 44 45 46 47 48 49 50
000
ASUS43 KMKX 152300
RWRWI

WISCONSIN REGIONAL WEATHER ROUNDUP
NATIONAL WEATHER SERVICE MILWAUKEE/SULLIVAN WI
500 PM CST MON JAN 15 2018

NOTE: "FAIR" INDICATES FEW OR NO CLOUDS BELOW 12,000 FEET WITH NO
SIGNIFICANT WEATHER AND/OR OBSTRUCTIONS TO VISIBILITY.

WIZ001-002-006>008-014>016-023>028-160000-
NORTHWEST WISCONSIN

CITY           SKY/WX    TMP DP  RH WIND       PRES   REMARKS
SUPERIOR ARPT  CLOUDY    12   5  74 N9        30.46R WCI  -1
ASHLAND        MOCLDY    16  13  88 N6        30.39R WCI   7
HAYWARD        LGT SNOW  13   7  77 VRB6      30.37R VSB 1   WCI   4
SIREN          MOCLDY     9   0  67 N10G16    30.43R WCI  -5
CUMBERLAND     CLOUDY     9   1  72 NW13G18   30.36R WCI  -7
RICE LAKE      LGT SNOW  10   3  75 CALM      30.38R
CHETEK         LGT SNOW  10   4  77 NW7       30.36R WCI  -2
LADYSMITH      LGT SNOW  17  13  84 N14       30.32R WCI   3
EAU CLAIRE     CLOUDY    10   3  73 NW9       30.35R WCI  -3
MENOMONIE      FLURRIES   9   3  78 W12G18    30.38R WCI  -6
NEW RICHMOND   FLURRIES   6  -2  71 NW10G17   30.42R WCI  -9
OSCEOLA        MOCLDY     7  -1  71 NW12      30.47R WCI  -9
$$

WIZ003>005-009-010-017-018-160000-
NORTH CENTRAL WISCONSIN

CITY           SKY/WX    TMP DP  RH WIND       PRES   REMARKS
MANITOWISH WTR FAIR      17  14  89 N6        30.27R WCI   8
ARBOR VITAE    LGT SNOW  20  17  88 N7        30.25R WCI  11
WOODRUFF       LGT SNOW  20  17  88 N7        30.25R WCI  11
RHINELANDER    LGT SNOW  19  15  84 NE6       30.25R FOG     WCI  11
EAGLE RIVER    LGT SNOW  18  13  84 N5        30.25R WCI  11
LAND O LAKES   LGT SNOW  20  16  87 N5        30.27R WCI  13
PHILLIPS       LGT SNOW  16  13  89 N5        30.26R WCI   9
TOMAHAWK       CLOUDY    19  16  85 NE3       30.24R FOG
MEDFORD        LGT SNOW  17  14  88 N9        30.23R WCI   5
MERRILL        FLURRIES  20  18  89 NE6       30.24R WCI  13
$$

WIZ029-030-035-036-043>047-160000-
CENTRAL WISCONSIN

CITY           SKY/WX    TMP DP  RH WIND       PRES   REMARKS
WAUSAU         LGT SNOW  20  16  84 NE6       30.22R FOG     WCI  12
MOSINEE        LGT SNOW  19  18  93 N5        30.23R WCI  13
MARSHFIELD     LGT SNOW  18  15  88 NW10      30.22R VSB 1   WCI   6
STEVENS POINT  MIX PCPN  19  18  98 NE9       30.23R WCI   8
WAUPACA        LGT SNOW  24  20  84 NE7       30.23R WCI  16
WAUTOMA        LGT SNOW  20  18  92 NW5       30.23R VSB 1   WCI  13
WISC RAPIDS    LGT SNOW  19  14  81 N8        30.25R WCI   9
CAMP DOUGLAS   LGT SNOW N/A N/A N/A NW13      30.28R
$$

WIZ011>013-019>022-031-037>040-048>050-160000-
NORTHEAST WISCONSIN

CITY           SKY/WX    TMP DP  RH WIND       PRES   REMARKS
ANTIGO         LGT SNOW  18  15  87 NE9       30.21R WCI   7
SHAWANO        CLOUDY    23  18  81 NE9       30.26R WCI  13
OCONTO         MOCLDY    19  16  86 NE5       30.28R WCI  12
STURGEON BAY   LGT SNOW  20  17  88 N6        30.28R FOG     WCI  12
GREEN BAY      FLURRIES  20  16  84 NE13      30.26R WCI   7
MANITOWOC      LGT SNOW  21  18  88 NE5       30.25R FOG     WCI  15
APPLETON       LGT SNOW  21  18  86 NE12      30.21R WCI   9
CLINTONVILLE   CLOUDY    23  18  80 E9        30.24R WCI  13
OSHKOSH        LGT SNOW  22  19  89 NE10      30.21R FOG     WCI  11
$$

WIZ032>034-041-042-053>061-160000-
SOUTHWEST WISCONSIN

CITY           SKY/WX    TMP DP  RH WIND       PRES   REMARKS
LA CROSSE      LGT SNOW   9   3  77 NW16      30.36R WCI  -8
SPARTA         LGT SNOW  11   7  84 NW8       30.32R WCI   0
VIROQUA        MOCLDY     8   5  86 NW15      30.26R WCI  -9
BOSCOBEL       LGT SNOW  13   4  67 NW9G17    30.34R WCI   1
PRAIRIE DU CHI CLOUDY     9   0  69 NW15G21   30.35R WCI  -8
PLATTEVILLE    FAIR      10   7  85 W15       30.27R WCI  -6
$$

WIZ056-057-062-063-064-067-068-160000-
SOUTH CENTRAL WISCONSIN

CITY           SKY/WX    TMP DP  RH WIND       PRES   REMARKS
REEDSBURG      LGT SNOW  14  10  82 NW9G18    30.24R WCI   2
BARABOO/DELLS  LGT SNOW  16  13  86 NW7       30.22R WCI   7
LONE ROCK      LGT SNOW  14   8  77 NW15G24   30.28R WCI  -1
MINERAL POINT  LGT SNOW  14  12  92 NW12G20   30.23R WCI   0
MADISON        SNOW      18  15  88 W7        30.21R VSB 1/4 WCI   9
MIDDLETON      CLOUDY    19  15  84 NW10      30.21R WCI   7
WATERTOWN      LGT SNOW  20  19  96 NW5       30.18R WCI  14
MONROE         LGT SNOW  14  10  85 W17       30.20R WCI  -3
JANESVILLE     LGT SNOW  19  18  93 W9        30.20R VSB 1   WCI   9
$$

WIZ051-052-058>065-066-070>072-160000-
SOUTHEAST WISCONSIN

CITY           SKY/WX    TMP DP  RH WIND       PRES   REMARKS
MILWAUKEE      LGT SNOW  24  21  88 N3        30.18R VSB 3/4
WAUKESHA       LGT SNOW  19  18  93 NW3       30.18R VSB 1
MILWAUKEE/TIMM LGT SNOW  23  18  80 N3        30.19R
RACINE         LGT SNOW  23  18  81 W3        30.20R
BURLINGTON     LGT SNOW  18  14  84 SW8       30.19R WCI   8
KENOSHA        LGT SNOW  18  13  80 W13       30.19R WCI   5
FOND DU LAC    LGT SNOW  23  18  81 NE7       30.20R WCI  15
SHEBOYGAN      LGT SNOW  22  20  92 NE9       30.21R FOG     WCI  12
WEST BEND      LGT SNOW  23  21  93 CALM      30.18R
JUNEAU         LGT SNOW  19  17  90 CALM      30.20R
$$

LSZ147-162-160000-
LAKE SUPERIOR

STATION/POSITION TIME  TEMP    WIND        PRES    WAVE
                       AIR SEA DIR/SP/G            HT/PER
                 (UTC) (F)     (DEG/KT/KT) (MB)    (FT/S)
DEVILS ISLAND    2200   26      50/ 15/ 18 1029.9R
SAXON HARBOR     2230   17        CALM     1028.1R
$$

LMZ867-665-643>646-160000-
LAKE MICHIGAN

STATION/POSITION TIME  TEMP    WIND        PRES    WAVE
                       AIR SEA DIR/SP/G            HT/PER
                 (UTC) (F)     (DEG/KT/KT) (MB)    (FT/S)
NORTHPORT PIER   2230   22      CALM  /  2 1025.7R
KEWAUNEE LAKESHO 2224   22      90/  8/ 12 1023.3
SHEBOYGAN LAKESH 2200   24      90/ 15/ 16 1023.6R
PORT WASHINGTON  2240   23     290/  5/  6 1023.4R
MILWAUKEE LAKESH 2230   24     340/  4/  5   N/A
KENOSHA   LAKESH 2200   22     240/  7/ 10 1022.0
$$

TC  - TEMPERATURE IN CELSIUS
VSB - VISIBILITY IN STATUTE MILES
WCI - WIND CHILL INDEX
HX  - HEAT INDEX





USA.gov is the U.S. government's official web portal to all federal, state and local government web resources and services.